Regional Weather Roundup
Issued by NWS

Home | Current Version | Previous Version | Text Only | Print | Product List | Glossary On
Versions: 1 2 3 4 5 6 7 8 9 10 11 12 13 14 15 16 17 18 19 20 21 22 23 24 25 26 27 28 29 30 31 32 33 34 35 36 37 38 39 40 41 42 43 44 45 46 47 48 49 50
000
ASHW40 PHFO 280843
RWRHI

WEATHER ROUNDUP FOR HAWAII
NATIONAL WEATHER SERVICE HONOLULU HI
1000 PM HST MON JUL 27 2015

THIS IS AN AUTOMATED REPORT THAT HAS NOT BEEN QUALITY CONTROLLED.

NOTE..."FAIR" INDICATES FEW OR NO CLOUDS BELOW 12,000 FEET WITH NO
SIGNIFICANT WEATHER AND/OR OBSTRUCTIONS TO VISIBILITY.

* - THESE SITES REPORT LIMITED FIELDS

HIZ001>004-280900-
KAUAI-NIIHAU-

CITY           SKY/WX    TMP DP  RH WIND       PRES   REMARKS
LIHUE APT      MOCLDY    80  70  71 NE9       30.00R
PORT ALLEN*    NOT AVBL
POIPU*           N/A     79 N/A N/A NE6G14      N/A
PRINCEVILLE*     N/A     75 N/A N/A MISG        N/A
KOKOLE POINT*  NOT AVBL
MOLOAA DAIRY*  NOT AVBL
WAIMEA HTS*      N/A     75  70  83 N3          N/A
PUU OPAE*        N/A     68  64  88 NE3         N/A
PUU LUA*       NOT AVBL
MAKAHA RIDGE*    N/A     70  66  88 S1          N/A
$$

HIZ005>011-280900-
OAHU-

CITY           SKY/WX    TMP DP  RH WIND       PRES   REMARKS
HONOLULU       PTCLDY    81  71  71 E10       29.97R
KALAELOA       CLEAR     77  68  73 CALM      29.99R
KANEOHE MCB    CLOUDY    79  72  79 E6        29.96R
WHEELER FIELD  FAIR      72  67  86 W5        29.99R
BELLOWS*         N/A    N/A N/A N/A NE13        N/A
KAHUKU*          N/A    N/A N/A N/A E7G13       N/A
WHEELER*       NOT AVBL
WAIANAE HARBOR NOT AVBL
DILLINGHAM*      N/A     73  66  78 MISG        N/A
KAHUKU TRN*      N/A     77  70  78 E6G16       N/A
KAWAILOA*        N/A     73  68  83 E7          N/A
KII*             N/A     81  73  78 E12G18      N/A
MAKUA RANGE*     N/A     73  66  78 SE3         N/A
OAHU FOREST NW   N/A     70  70 100 CALM        N/A
SCHOFIELD BRK*   N/A     70  68  94 MISG        N/A
SCHOFIELD S*   NOT AVBL
WAIANAE VLY*     N/A     72  66  83 MISG        N/A
KUAOKALA*        N/A     75  66  73 NE6         N/A
HONOULIUULI*   NOT AVBL
MOKUOLOE IS*     N/A    N/A N/A N/A MISG        N/A
PALEHUA*         N/A     70  66  88 NE8         N/A
WAIAWA PHB*    NOT AVBL
$$

HIZ012>013-280900-
MOLOKAI-

CITY           SKY/WX    TMP DP  RH WIND       PRES   REMARKS
MOLOKAI AIRPT  MOCLDY    77  70  79 N5        29.98R
KALAUPAPA      NOT AVBL
MAKAPULAPAI*     N/A     79  73  83 E15G21      N/A
MOLOKAI 1*       N/A     82  79  89 CALM        N/A  HX  93
PUU ALII*        N/A     63  63 100 CALM        N/A
$$

HIZ016-280900-
KAHOOLAWE-

CITY           SKY/WX    TMP DP  RH WIND       PRES   REMARKS
KAHOOLAWE*       N/A     73 N/A N/A E17G24      N/A
HAKIOAWA*        N/A     76  70  83 MISG      30.41
HONOKANAIA*      N/A     81  71  72 NE14G22   29.97R
KANELOA*         N/A     75  70  83 E16G23    30.02S
KEALIALALO*      N/A     77  72  83 E15G29    29.97S
LUA MAKIKA*    NOT AVBL
$$

HIZ014>015-280900-
LANAI-

CITY           SKY/WX    TMP DP  RH WIND       PRES   REMARKS
LANAI CITY     MOCLDY    73  70  88 NW5       30.04R
LANAI 1*         N/A     73  72  94 NE9         N/A
$$

HIZ017>028-280900-
MAUI-

CITY           SKY/WX    TMP DP  RH WIND       PRES   REMARKS
KAHULUI        PTCLDY    78  70  76 CALM      29.96R
KAPALUA-W MAUI NOT AVBL
HANA AIRPORT   MOCLDY    75  73  94 S3        30.02S
HANA*            N/A     75 N/A N/A SE3         N/A
HALEAKALA SUMM   N/A     46  39  76 SE6         N/A
MAALAEA BAY*   NOT AVBL
HALEAKALA*     NOT AVBL
KAUPO GAP*       N/A     64  59  82 NW3         N/A
KULA 1*          N/A     53  53  99 E5          N/A
$$

HIZ023>026-280900-
BIG ISLAND OF HAWAII COAST AND LOWER SLOPES-

CITY           SKY/WX    TMP DP  RH WIND       PRES   REMARKS
KAILUA KONA    CLOUDY    83  72  69 NW6       29.94R
HILO           MOCLDY    76  73  91 SW5       30.00R
HONOKAA*       NOT AVBL
KAWAIHAE MWT*    N/A     82 N/A N/A E3          N/A
KAWAIHAE*        N/A     81 N/A N/A S3          N/A
SOUTH POINT*     N/A     75 N/A N/A NE15G26     N/A
UPOLU AIRPORT*   N/A    N/A N/A N/A E20G30      N/A
KAMUELA*       SUNNY     66  66 100 E3        30.08S
HAKALAU*         N/A     56  55  98 S5          N/A
KALOKO-HONOKO*   N/A     82  70  65 NW3G9     29.94R
PALI 2*          N/A     66  63  88 NE8G14      N/A
KEALAKOMO*       N/A     73  64  73 N7          N/A
KAUPULEHU*       N/A     75  70  83 NW3         N/A
KAPAPALA*        N/A     67  65  95 N3          N/A
LOWER KAHUKU*    N/A     64  64 100 VRB3G12     N/A
PUHE CS*         N/A     81  72  74 E3          N/A
PUHO CS*         N/A     77  69  75 E2          N/A
PTA KEAMUKU*     N/A     64  63  94 CALM        N/A
WAIKOLOA*        N/A     72  70  94 SE5         N/A
$$

HIZ027>028-280900-
BIG ISLAND OF HAWAII INTERIOR AND SUMMMITS-

CITY           SKY/WX    TMP DP  RH WIND       PRES   REMARKS
BRADSHAW FIELD CLEAR     51  48  92 SE5       30.33R
MK VISITOR CEN   N/A      0   0 100 MISG        N/A
MAUNA KEA*       N/A     39  10  30 S6          N/A
MAUNA LOA*       N/A    N/A N/A N/A MISG        N/A
MAUNA LOA 1*   NOT AVBL
PTA KIPUKA*      N/A     61  59  94 SW2G12      N/A
PTA RANGE 17*    N/A     61  54  77 SE12G18     N/A
PTA WEST*        N/A     72  66  83 SE3G12      N/A
NENE CABIN*      N/A     52 N/A N/A NE5G12      N/A
AHUMOA*          N/A     54  50  86 NE3         N/A
PTA PORTABLE*  NOT AVBL
PUU MALI*        N/A     57  54  88 SW7         N/A
$$

HIC003-280900-
NORTHWEST ISLANDS-

CITY           SKY/WX    TMP DP  RH WIND       PRES   REMARKS
MIDWAY ISLAND  CLEAR     79  72  78 E13       30.09R
MIDWAY NOS*    NOT AVBL
FRENCH FRIGATE NOT AVBL
$$

PHZ110>124-180-280900-
BUOY REPORTS

STATION/POSITION TIME  TEMP    WIND        PRES    WAVE   SWELL
                       AIR SEA DIR/SP/G            HT/PER HT/DIR
                 (UTC) (F)     (DEG/KT/KT) (MB)    (FT/S) (FT/D)
BUOY 51001       NOT AVBL
BUOY 51101       0800   80 81  130/  8/ 10 1014.9R   5/15   5/180
BUOY 51100       NOT AVBL
BUOY 51002       0800   82 82   80/ 19/ 23 1012.5S   7/14   5/160
BUOY 51003       0800   81 83   80/ 10/ 12 1013.8R   5/15   5
BUOY 51004       0700   81 81   90/ 17/ 19 1014.3    8/15   5/160
BARBERS PT BUOY  NOT AVBL
WAIMEA BAY BUOY  0800      81                N/A     3/ 7   2/260
KAILUA BAY BUOY  0800      81                N/A     4/ 8   2/120
LANAI BUOY       NOT AVBL
BARBERS PT 2     0800      82                N/A     5/14   3/200
PAUWELA MAUI     0800      80                N/A     5/ 7   2/ 90
HILO             NOT AVBL
KANEOHE BAY BUOY 0800      81                N/A     4/ 7
HANALEI KAUAI    0800      81                N/A     4/ 7
KAHULUI HARBOR   0800   80 82  300/  2/  3 1014.6R
HONOLULU HARBOR  0800   81 82   50/  3/  5 1015.0R
KILO NALU        NOT AVBL
HILO HARBOR      0800   77 78  220/  5/  5 1015.7R
MOKUOLOE         0800      85              1015.3R
NAWILIWILI       0800   80      60/  9/ 10 1015.5R
WHOTS BUOY       NOT AVBL
BUOY 51028       NOT AVBL
$$

......................KEY........................................
  SKY/WX - SKY CONDITIONS/PRESENT WEATHER
  TMP    - TEMPERATURE IN FAHRENHEIT
  DWPT   - DEWPOINT IN FAHRENHEIT
  RH     - RELATIVE HUMIDITY IN PERCENT
  WIND   - DIRECTION AND SPEED /MPH FOR ISLANDS...KTS FOR BUOYS/
  PRES   - MEAN SEA LEVEL PRESSURE IN INCHES OF HG
  VSB    - VISIBILITY IN MILES
  HX     - HEAT INDEX
  WCI    - WIND CHILL INDEX
  VRB    - VARIABLE WIND DIRECTION
  N/A    - NOT AVAILABLE


USA.gov is the U.S. government's official web portal to all federal, state and local government web resources and services.